• In Deutschland
  • Länderverzeichnis
  • Für 7 Tage
  • Wassertemperatur
  • Satellitenkarten
  • Wetterkarte
  • Widgets
  • user-avatar
    Anmelden

    Stündliche Wetter Żyrardów

    Heute, 23 Oktober, Montag

    Zeit Temperatur Niederschläge Wind Luftdruck Luftfeuchtigkeit
    00:00 +10°C° 0 mm 1 m/S 750 mmHg 89%
    01:00 +10°C° 0 mm 1 m/S 749 mmHg 90%
    02:00 +9°C° 0 mm 1 m/S 749 mmHg 91%
    03:00 +9°C° 0 mm 1 m/S 749 mmHg 91%
    04:00 +9°C° 0 mm 1 m/S 749 mmHg 92%
    05:00 +9°C° 0,1 mm 1 m/S 749 mmHg 91%
    06:00 +8°C° 0,1 mm 2 m/S 749 mmHg 91%
    07:00 +8°C° 0,1 mm 2 m/S 749 mmHg 91%
    08:00 +8°C° 0,2 mm 2 m/S 749 mmHg 89%
    09:00 +9°C° 0,2 mm 2 m/S 749 mmHg 87%
    10:00 +9°C° 0,2 mm 3 m/S 749 mmHg 85%
    11:00 +9°C° 0,2 mm 3 m/S 750 mmHg 83%
    12:00 +9°C° 0,2 mm 3 m/S 750 mmHg 82%
    13:00 +10°C° 0,2 mm 3 m/S 750 mmHg 81%
    14:00 +9°C° 0,4 mm 3 m/S 750 mmHg 83%
    15:00 +9°C° 0,4 mm 3 m/S 750 mmHg 84%
    16:00 +8°C° 0,4 mm 3 m/S 751 mmHg 86%
    17:00 +8°C° 0,3 mm 3 m/S 751 mmHg 86%
    18:00 +8°C° 0,3 mm 3 m/S 752 mmHg 87%
    19:00 +7°C° 0,3 mm 3 m/S 752 mmHg 88%
    20:00 +7°C° 0,2 mm 3 m/S 753 mmHg 87%
    21:00 +7°C° 0,2 mm 3 m/S 753 mmHg 87%
    22:00 +7°C° 0,2 mm 3 m/S 754 mmHg 87%
    23:00 +5°C° 0 mm 3 m/S 754 mmHg 87%

    Morgen, 24 Oktober, Dienstag

    Zeit Temperatur Niederschläge Wind Luftdruck Luftfeuchtigkeit
    00:00 +5°C° 0 mm 3 m/S 755 mmHg 87%
    01:00 +5°C° 0 mm 3 m/S 755 mmHg 86%
    02:00 +5°C° 0 mm 2 m/S 756 mmHg 87%
    03:00 +5°C° 0 mm 2 m/S 756 mmHg 88%
    04:00 +5°C° 0 mm 2 m/S 756 mmHg 88%
    05:00 +4°C° 0 mm 2 m/S 757 mmHg 88%
    06:00 +4°C° 0 mm 2 m/S 758 mmHg 89%
    07:00 +4°C° 0 mm 2 m/S 758 mmHg 89%
    08:00 +5°C° 0 mm 2 m/S 759 mmHg 83%
    09:00 +6°C° 0 mm 2 m/S 759 mmHg 76%
    10:00 +7°C° 0 mm 3 m/S 759 mmHg 70%
    11:00 +8°C° 0 mm 2 m/S 759 mmHg 67%
    12:00 +8°C° 0 mm 2 m/S 759 mmHg 64%
    13:00 +9°C° 0 mm 2 m/S 759 mmHg 61%
    14:00 +9°C° 0 mm 2 m/S 759 mmHg 64%
    15:00 +8°C° 0 mm 2 m/S 760 mmHg 66%
    16:00 +9°C° 0 mm 1 m/S 760 mmHg 69%
    17:00 +7°C° 0 mm 2 m/S 760 mmHg 72%
    18:00 +6°C° 0 mm 2 m/S 760 mmHg 75%
    19:00 +6°C° 0 mm 2 m/S 761 mmHg 78%
    20:00 +5°C° 0 mm 2 m/S 761 mmHg 80%
    21:00 +5°C° 0 mm 2 m/S 761 mmHg 81%
    22:00 +5°C° 0 mm 2 m/S 761 mmHg 83%
    23:00 +5°C° 0 mm 2 m/S 761 mmHg 83%

    übermorgen, 25 Oktober, Mittwoch

    Zeit Temperatur Niederschläge Wind Luftdruck Luftfeuchtigkeit
    00:00 +5°C° 0 mm 2 m/S 761 mmHg 84%
    01:00 +4°C° 0 mm 2 m/S 761 mmHg 85%
    02:00 +3°C° 0 mm 3 m/S 760 mmHg 85%
    03:00 +3°C° 0 mm 3 m/S 760 mmHg 85%
    04:00 +3°C° 0 mm 3 m/S 760 mmHg 85%
    05:00 +3°C° 0 mm 3 m/S 760 mmHg 84%
    06:00 +3°C° 0 mm 4 m/S 760 mmHg 84%
    07:00 +3°C° 0 mm 4 m/S 760 mmHg 83%
    08:00 +4°C° 0 mm 4 m/S 760 mmHg 77%
    09:00 +6°C° 0 mm 5 m/S 760 mmHg 72%
    10:00 +7°C° 0 mm 5 m/S 759 mmHg 66%
    11:00 +7°C° 0,6 mm 5 m/S 759 mmHg 69%
    12:00 +7°C° 0,6 mm 5 m/S 759 mmHg 71%
    13:00 +7°C° 0,6 mm 5 m/S 758 mmHg 74%
    14:00 +7°C° 0,2 mm 5 m/S 758 mmHg 74%
    15:00 +7°C° 0,2 mm 5 m/S 757 mmHg 75%
    16:00 +7°C° 0,2 mm 5 m/S 757 mmHg 76%
    17:00 +8°C° 0 mm 5 m/S 757 mmHg 77%
    18:00 +8°C° 0 mm 5 m/S 757 mmHg 78%
    19:00 +8°C° 0 mm 4 m/S 757 mmHg 79%
    20:00 +9°C° 0,1 mm 5 m/S 756 mmHg 83%
    21:00 +9°C° 0,1 mm 5 m/S 756 mmHg 86%
    22:00 +10°C° 0,1 mm 5 m/S 756 mmHg 90%
    23:00 +10°C° 0,2 mm 5 m/S 756 mmHg 91%

    26 Oktober, Donnerstag

    Zeit Temperatur Niederschläge Wind Luftdruck Luftfeuchtigkeit
    00:00 +10°C° 0,2 mm 5 m/S 756 mmHg 92%
    01:00 +12°C° 0,2 mm 5 m/S 756 mmHg 94%
    02:00 +12°C° 0 mm 4 m/S 756 mmHg 95%
    03:00 +12°C° 0 mm 4 m/S 756 mmHg 95%
    04:00 +12°C° 0 mm 3 m/S 756 mmHg 96%
    05:00 +12°C° 0,1 mm 3 m/S 756 mmHg 96%
    06:00 +12°C° 0,1 mm 3 m/S 756 mmHg 96%
    07:00 +12°C° 0,1 mm 3 m/S 756 mmHg 96%
    08:00 +12°C° 0,1 mm 4 m/S 756 mmHg 94%
    09:00 +12°C° 0,1 mm 4 m/S 756 mmHg 91%
    10:00 +13°C° 0,1 mm 4 m/S 756 mmHg 89%
    11:00 +13°C° 0 mm 5 m/S 755 mmHg 86%
    12:00 +14°C° 0 mm 5 m/S 755 mmHg 83%
    13:00 +14°C° 0 mm 5 m/S 755 mmHg 81%
    14:00 +14°C° 0,2 mm 5 m/S 754 mmHg 82%
    15:00 +13°C° 0,2 mm 5 m/S 754 mmHg 84%
    16:00 +13°C° 0,2 mm 4 m/S 754 mmHg 86%
    17:00 +13°C° 0 mm 4 m/S 754 mmHg 86%
    18:00 +12°C° 0 mm 4 m/S 754 mmHg 86%
    19:00 +12°C° 0 mm 4 m/S 753 mmHg 86%
    20:00 +12°C° 0 mm 4 m/S 753 mmHg 87%
    21:00 +11°C° 0 mm 4 m/S 753 mmHg 89%
    22:00 +11°C° 0 mm 3 m/S 753 mmHg 91%
    23:00 +11°C° 0,1 mm 3 m/S 752 mmHg 92%

    27 Oktober, Freitag

    Zeit Temperatur Niederschläge Wind Luftdruck Luftfeuchtigkeit
    00:00 +11°C° 0,1 mm 3 m/S 752 mmHg 93%
    01:00 +11°C° 0,1 mm 3 m/S 751 mmHg 94%
    02:00 +11°C° 0 mm 3 m/S 751 mmHg 93%
    03:00 +11°C° 0 mm 3 m/S 750 mmHg 93%
    04:00 +10°C° 0 mm 3 m/S 750 mmHg 92%
    05:00 +10°C° 0,1 mm 4 m/S 749 mmHg 92%
    06:00 +10°C° 0,1 mm 4 m/S 749 mmHg 92%
    07:00 +10°C° 0,1 mm 4 m/S 748 mmHg 91%
    08:00 +9°C° 0,2 mm 5 m/S 748 mmHg 88%
    09:00 +10°C° 0,2 mm 5 m/S 748 mmHg 85%
    10:00 +10°C° 0,2 mm 6 m/S 747 mmHg 82%
    11:00 +10°C° 0,4 mm 6 m/S 747 mmHg 80%
    12:00 +10°C° 0,4 mm 6 m/S 746 mmHg 79%
    13:00 +10°C° 0,4 mm 7 m/S 746 mmHg 77%
    14:00 +10°C° 0,1 mm 7 m/S 746 mmHg 77%
    15:00 +10°C° 0,1 mm 6 m/S 745 mmHg 77%
    16:00 +9°C° 0,1 mm 6 m/S 745 mmHg 77%
    17:00 +9°C° 0,1 mm 6 m/S 745 mmHg 79%
    18:00 +8°C° 0,1 mm 6 m/S 745 mmHg 80%
    19:00 +8°C° 0,1 mm 6 m/S 745 mmHg 82%
    20:00 +8°C° 0,2 mm 6 m/S 744 mmHg 82%
    21:00 +8°C° 0,2 mm 7 m/S 744 mmHg 83%
    22:00 +9°C° 0,2 mm 7 m/S 744 mmHg 83%
    23:00 +8°C° 0,1 mm 7 m/S 744 mmHg 84%

    28 Oktober, Samstag

    Zeit Temperatur Niederschläge Wind Luftdruck Luftfeuchtigkeit
    00:00 +8°C° 0,1 mm 7 m/S 744 mmHg 84%
    01:00 +8°C° 0,1 mm 7 m/S 743 mmHg 84%
    02:00 +8°C° 0 mm 7 m/S 743 mmHg 84%
    03:00 +7°C° 0 mm 6 m/S 743 mmHg 84%
    04:00 +7°C° 0 mm 6 m/S 743 mmHg 85%
    05:00 +7°C° 0,1 mm 6 m/S 742 mmHg 84%
    06:00 +7°C° 0,1 mm 6 m/S 742 mmHg 84%
    07:00 +7°C° 0,1 mm 5 m/S 742 mmHg 84%
    08:00 +7°C° 0,3 mm 6 m/S 742 mmHg 83%
    09:00 +7°C° 0,3 mm 6 m/S 741 mmHg 82%
    10:00 +7°C° 0,3 mm 6 m/S 741 mmHg 81%
    11:00 +8°C° 0,2 mm 6 m/S 741 mmHg 79%
    12:00 +8°C° 0,2 mm 6 m/S 740 mmHg 78%
    13:00 +9°C° 0,2 mm 5 m/S 740 mmHg 76%
    14:00 +8°C° 0,1 mm 5 m/S 740 mmHg 78%
    15:00 +8°C° 0,1 mm 4 m/S 740 mmHg 80%
    16:00 +9°C° 0,1 mm 3 m/S 740 mmHg 82%
    17:00 +8°C° 0,2 mm 3 m/S 740 mmHg 85%
    18:00 +8°C° 0,2 mm 3 m/S 741 mmHg 87%
    19:00 +8°C° 0,2 mm 2 m/S 741 mmHg 89%
    20:00 +8°C° 0 mm 2 m/S 742 mmHg 89%
    21:00 +8°C° 0 mm 2 m/S 742 mmHg 90%
    22:00 +7°C° 0 mm 2 m/S 743 mmHg 90%
    23:00 +7°C° 0 mm 3 m/S 744 mmHg 91%

    29 Oktober, Sonntag

    Zeit Temperatur Niederschläge Wind Luftdruck Luftfeuchtigkeit
    00:00 +7°C° 0 mm 3 m/S 744 mmHg 92%
    01:00 +7°C° 0 mm 3 m/S 745 mmHg 92%
    02:00 +7°C° 0,1 mm 3 m/S 745 mmHg 92%
    03:00 +6°C° 0,1 mm 4 m/S 745 mmHg 92%
    04:00 +6°C° 0,1 mm 4 m/S 746 mmHg 92%
    05:00 +6°C° 0 mm 4 m/S 746 mmHg 92%
    06:00 +5°C° 0 mm 4 m/S 747 mmHg 92%
    07:00 +5°C° 0 mm 4 m/S 747 mmHg 93%
    08:00 +6°C° 0 mm 4 m/S 748 mmHg 90%
    09:00 +6°C° 0 mm 4 m/S 748 mmHg 87%
    10:00 +7°C° 0 mm 5 m/S 748 mmHg 84%
    11:00 +7°C° 0 mm 5 m/S 748 mmHg 81%
    12:00 +8°C° 0 mm 5 m/S 748 mmHg 79%
    13:00 +8°C° 0 mm 6 m/S 747 mmHg 76%
    14:00 +8°C° 0 mm 6 m/S 747 mmHg 77%
    15:00 +7°C° 0 mm 6 m/S 747 mmHg 78%
    16:00 +7°C° 0 mm 6 m/S 746 mmHg 78%
    17:00 +7°C° 0,1 mm 6 m/S 746 mmHg 80%
    18:00 +7°C° 0,1 mm 6 m/S 745 mmHg 82%
    19:00 +7°C° 0,1 mm 6 m/S 745 mmHg 84%
    20:00 +7°C° 0,1 mm 6 m/S 744 mmHg 85%
    21:00 +8°C° 0,1 mm 6 m/S 744 mmHg 85%
    22:00 +8°C° 0,1 mm 7 m/S 743 mmHg 86%
    23:00 +8°C° 0,1 mm 7 m/S 742 mmHg 84%
    Mehr zeigen